GW0882 Weather Reports


time (UTC)temp
C
wind
direction
speed
KPH
gust
KPH
rain 1hr
cm
rain 24hr
cm
rain mn
cm
humidity
%
barometer
mb
20260507051542 7 0 0.0 0.0 0.00 0.00 0.00 85 1015.6
20260507050041 7 0 0.0 0.0 0.00 0.00 0.00 85 1015.4
20260507044537 7 0 0.0 0.0 0.00 0.00 0.00 85 1015.4
20260507043038 7 0 0.0 0.0 0.00 0.00 0.00 85 1015.3
20260507041543 7 0 0.0 0.0 0.00 0.00 0.00 84 1015.3
20260507040040 7 0 0.0 0.0 0.00 0.00 0.00 84 1015.3
20260507034546 7 0 0.0 0.0 0.00 0.00 0.00 84 1015.3
20260507033049 7 0 0.0 0.0 0.00 0.00 0.00 84 1015.1
20260507031535 7 0 0.0 0.0 0.00 0.00 0.00 84 1015.1
20260507030035 7 0 0.0 0.0 0.00 0.00 0.00 83 1015.1
20260507024547 7 0 0.0 0.0 0.00 0.00 0.00 83 1015.0
20260507023036 7 0 0.0 0.0 0.00 0.00 0.00 83 1015.0
20260507021535 7 0 0.0 0.0 0.00 0.00 0.00 82 1014.9
20260507020037 7 0 0.0 0.0 0.00 0.00 0.00 81 1014.7
20260507014538 8 0 0.0 0.0 0.00 0.00 0.00 81 1014.7
20260507013039 8 0 0.0 0.0 0.00 0.00 0.00 80 1014.7
20260507011538 8 0 0.0 0.0 0.00 0.00 0.00 79 1014.7
20260507010040 8 0 0.0 0.0 0.00 0.00 0.00 78 1014.7
20260507004539 8 0 0.0 0.0 0.00 0.00 0.00 77 1014.7
20260507003039 8 0 0.0 1.6 0.00 0.00 0.00 77 1014.8
20260507001600 9 0 0.0 1.6 0.00 0.00 0.00 77 1014.8
20260507000037 9 0 0.0 0.0 0.00 0.00 0.00 77 1014.9
20260506234546 9 0 0.0 1.6 0.00 0.00 0.00 77 1014.9
20260506233042 9 0 0.0 1.6 0.00 0.00 0.00 77 1014.9
20260506231538 9 333 0.0 4.8 0.00 0.00 0.00 77 1014.8
20260506230039 9 0 0.0 3.2 0.00 0.00 0.00 77 1014.7
20260506224544 9 0 0.0 3.2 0.00 0.00 0.00 77 1014.8
20260506223042 9 0 0.0 6.4 0.00 0.00 0.00 77 1014.7
20260506221539 9 0 0.0 0.0 0.00 0.00 0.00 77 1014.6
20260506220045 9 0 0.0 0.0 0.00 0.00 0.00 76 1014.5
20260506214537 10 0 0.0 0.0 0.00 0.00 0.00 75 1014.5
20260506213035 10 0 0.0 3.2 0.00 0.00 0.00 75 1014.5
20260506211550 10 0 0.0 1.6 0.00 0.00 0.00 75 1014.4
20260506210041 10 0 0.0 4.8 0.00 0.00 0.00 75 1014.3
20260506204539 10 0 0.0 6.4 0.00 0.00 0.00 74 1014.4
20260506203036 10 63 1.6 6.4 0.00 0.00 0.00 74 1014.3
20260506201535 10 0 1.6 4.8 0.00 0.00 0.00 73 1014.2
20260506200036 10 68 1.6 6.4 0.00 0.00 0.00 72 1014.0
20260506194544 10 66 0.0 8.0 0.00 0.00 0.00 71 1013.9
20260506193045 10 69 1.6 8.0 0.00 0.00 0.00 69 1013.8
20260506191537 11 0 0.0 6.4 0.00 0.00 0.00 68 1013.6
20260506190037 11 0 0.0 6.4 0.00 0.00 0.00 67 1013.5
20260506184540 11 77 0.0 8.0 0.00 0.00 0.00 66 1013.3
20260506183042 11 0 1.6 11.3 0.00 0.00 0.00 66 1013.1
20260506181554 11 15 0.0 11.3 0.00 0.00 0.00 65 1013.2
20260506180037 11 0 0.0 11.3 0.00 0.00 0.00 64 1013.0
20260506174536 12 99 0.0 8.0 0.00 0.00 0.00 62 1012.9
20260506173105 12 52 0.0 9.7 0.00 0.00 0.00 61 1012.8
20260506171546 12 0 0.0 6.4 0.00 0.00 0.00 61 1012.6
20260506170039 12 0 0.0 6.4 0.00 0.00 0.00 61 1012.6
20260506164543 12 0 1.6 8.0 0.00 0.00 0.00 61 1012.7
20260506163041 13 80 0.0 6.4 0.00 0.00 0.00 59 1012.6
20260506161541 13 0 1.6 11.3 0.00 0.00 0.00 58 1012.7
20260506160046 13 332 1.6 12.9 0.00 0.00 0.00 58 1012.7
20260506154541 13 0 1.6 16.1 0.00 0.00 0.00 58 1012.7
20260506153036 13 326 3.2 14.5 0.00 0.00 0.00 58 1012.7
20260506151545 13 32 3.2 14.5 0.00 0.00 0.00 57 1012.6
20260506150045 15 66 0.0 16.1 0.00 0.00 0.00 55 1012.7
20260506144544 13 0 0.0 6.4 0.00 0.00 0.00 57 1012.7
20260506143038 14 0 0.0 17.7 0.00 0.00 0.00 54 1012.8
20260506141535 15 340 3.2 14.5 0.00 0.00 0.00 52 1012.6
20260506140037 13 42 1.6 12.9 0.00 0.00 0.00 55 1012.6
20260506134546 13 75 0.0 8.0 0.00 0.00 0.00 54 1012.7
20260506133039 14 318 3.2 9.7 0.00 0.00 0.00 52 1012.7
20260506131546 13 198 0.0 16.1 0.00 0.00 0.00 55 1012.6
20260506130040 14 327 4.8 16.1 0.00 0.00 0.00 52 1012.7
20260506124535 15 44 3.2 14.5 0.00 0.00 0.00 50 1012.6
20260506123041 16 0 3.2 17.7 0.00 0.00 0.00 45 1012.5
20260506121538 15 0 3.2 16.1 0.00 0.00 0.00 50 1012.5
20260506120040 16 302 3.2 17.7 0.00 0.00 0.00 50 1012.5
20260506114535 16 121 3.2 16.1 0.00 0.00 0.00 46 1012.7
20260506113041 15 127 4.8 20.9 0.00 0.00 0.00 50 1012.5
20260506111538 14 296 9.7 25.7 0.00 0.00 0.00 56 1012.7
20260506110037 15 253 1.6 19.3 0.00 0.00 0.00 53 1012.7
20260506104535 14 296 4.8 22.5 0.00 0.00 0.00 55 1012.7
20260506103039 14 336 1.6 19.3 0.00 0.00 0.00 53 1012.6
20260506101536 13 0 3.2 32.2 0.00 0.00 0.00 57 1012.5
20260506100038 14 303 4.8 19.3 0.00 0.00 0.00 55 1012.5
20260506094547 13 319 6.4 19.3 0.00 0.00 0.00 57 1012.6
20260506093039 13 319 3.2 16.1 0.00 0.00 0.00 56 1012.7
20260506091535 12 296 8.0 20.9 0.00 0.00 0.00 61 1012.5
20260506090035 10 325 8.0 20.9 0.00 0.00 0.00 68 1012.5
20260506084542 10 5 9.7 24.1 0.00 0.00 0.00 67 1012.5
20260506083037 10 0 4.8 19.3 0.00 0.00 0.00 70 1012.5
20260506081535 8 328 6.4 19.3 0.00 0.00 0.00 71 1012.6
20260506073040 8 29 6.4 17.7 0.00 0.00 0.00 72 1012.6
20260506071548 8 325 3.2 16.1 0.00 0.00 0.00 75 1012.5
20260506061539 7 321 3.2 14.5 0.00 0.00 0.00 80 1012.2